sat.trackr.live / text

‹ back to catalog

STARLINK-36373

NORAD 68039 · 2026-040AA

PAYLOAD ACTIVE UNKNOWN

§ Identity

Operator
Country
US
Launch date
2026-03-01
Launch site
AFWTR
Launch vehicle
Mass (kg)
RCS (m²)

Purposes: comms

External: N2YO · Heavens-Above · Gunter

§ Orbital elements

Epoch: 2026-05-24T19:53:49.996032Z

Period
93.91 min
Inclination
97.2839°
Eccentricity
0.0001731
Mean motion
15.33452764 rev/d
Perigee alt
464.3 km
Apogee alt
466.7 km
Semi-major
6,843.7 km
B*
7.3063e-4
RAAN
93.8763°
Arg perigee
94.2032°
Mean anomaly
265.9408°
Rev number
1,313

§ Raw data

STARLINK-363731 68039U 26040AA  26144.82905088  .00023593  00000+0  73063-3 0  99982 68039  97.2839  93.8763 0001731  94.2032 265.9408 15.33452764 13136

JSON: /api/v1/satellites/68039 · /tle

For live sub-satellite position, see the globe view (requires WebGL).

§ Visibility from observer

Set your observer location to see the next 7 days of passes ≥ 10°. The values pass through the URL so the page stays shareable.

No JS? Fill the form by hand. The geolocation button needs JavaScript.